Time,TemperatureF,DewpointF,PressureIn,WindDirection,WindDirectionDegrees,WindSpeedMPH,WindSpeedGustMPH,Humidity,HourlyPrecipIn,Conditions,Clouds,dailyrainin,SoftwareType,DateUTC
2013-06-10 00:04:00,57.0,53.8,30.19,SSE,158,0.0,3.0,89,0.00,,,0.00,Weather View 32 v70,2013-06-10 04:04:00,
2013-06-10 00:09:00,57.0,54.1,30.20,West,270,0.0,3.0,90,0.00,,,0.00,Weather View 32 v70,2013-06-10 04:09:00,
2013-06-10 00:14:00,56.0,53.1,30.19,West,270,1.0,3.0,90,0.00,,,0.00,Weather View 32 v70,2013-06-10 04:14:00,
2013-06-10 00:24:00,56.0,53.4,30.19,SSE,158,0.0,3.0,91,0.00,,,0.00,Weather View 32 v70,2013-06-10 04:24:00,
2013-06-10 00:29:00,56.0,53.4,30.20,WNW,292,0.0,3.0,91,0.00,,,0.00,Weather View 32 v70,2013-06-10 04:29:00,
2013-06-10 00:39:00,56.0,54.0,30.19,WNW,292,1.0,2.0,93,0.00,,,0.00,Weather View 32 v70,2013-06-10 04:39:00,
2013-06-10 00:44:00,56.0,54.3,30.19,West,270,0.0,2.0,94,0.00,,,0.00,Weather View 32 v70,2013-06-10 04:44:00,
2013-06-10 00:54:00,56.0,54.9,30.19,WNW,292,0.0,2.0,96,0.00,,,0.00,Weather View 32 v70,2013-06-10 04:54:00,
2013-06-10 01:00:00,56.0,54.9,30.19,WNW,292,0.0,2.0,96,0.00,,,0.00,Weather View 32 v70,2013-06-10 05:00:00,
2013-06-10 01:09:00,55.0,54.2,30.20,WSW,248,0.0,2.0,97,0.00,,,0.00,Weather View 32 v70,2013-06-10 05:09:00,
2013-06-10 01:19:00,55.0,54.4,30.20,SE,135,0.0,3.0,98,0.00,,,0.00,Weather View 32 v70,2013-06-10 05:19:00,
2013-06-10 01:29:00,55.0,54.7,30.19,WSW,248,1.0,3.0,99,0.00,,,0.00,Weather View 32 v70,2013-06-10 05:29:00,
2013-06-10 01:39:00,55.0,55.0,30.19,WNW,292,0.0,3.0,100,0.00,,,0.00,Weather View 32 v70,2013-06-10 05:39:00,
2013-06-10 01:50:00,54.0,54.0,30.20,WNW,292,0.0,3.0,100,0.00,,,0.00,Weather View 32 v70,2013-06-10 05:50:00,
2013-06-10 01:59:00,54.0,54.0,30.19,SW,225,0.0,3.0,100,0.00,,,0.00,Weather View 32 v70,2013-06-10 05:59:00,
2013-06-10 02:09:00,54.0,54.0,30.19,West,270,0.0,3.0,100,0.00,,,0.00,Weather View 32 v70,2013-06-10 06:09:00,
2013-06-10 02:19:00,54.0,54.0,30.19,West,270,0.0,2.0,100,0.00,,,0.00,Weather View 32 v70,2013-06-10 06:19:00,
2013-06-10 02:29:00,53.0,53.0,30.20,West,270,1.0,2.0,100,0.00,,,0.00,Weather View 32 v70,2013-06-10 06:29:00,
2013-06-10 02:39:00,53.0,53.0,30.20,WNW,292,1.0,2.0,100,0.00,,,0.00,Weather View 32 v70,2013-06-10 06:39:00,
2013-06-10 02:44:00,54.0,54.0,30.20,South,180,1.0,2.0,100,0.00,,,0.00,Weather View 32 v70,2013-06-10 06:44:00,
2013-06-10 02:54:00,53.0,53.0,30.20,West,270,0.0,2.0,100,0.00,,,0.00,Weather View 32 v70,2013-06-10 06:54:00,
2013-06-10 03:04:00,53.0,53.0,30.20,WNW,292,1.0,3.0,100,0.00,,,0.00,Weather View 32 v70,2013-06-10 07:04:00,
2013-06-10 03:14:00,53.0,53.0,30.20,WNW,292,0.0,3.0,100,0.00,,,0.00,Weather View 32 v70,2013-06-10 07:14:00,
2013-06-10 03:20:00,53.0,53.0,30.20,WNW,292,1.0,3.0,100,0.00,,,0.00,Weather View 32 v70,2013-06-10 07:20:00,
2013-06-10 03:29:00,52.0,52.0,30.20,WNW,292,0.0,3.0,100,0.00,,,0.00,Weather View 32 v70,2013-06-10 07:29:00,
2013-06-10 03:40:00,53.0,53.0,30.20,WNW,292,0.0,3.0,100,0.00,,,0.00,Weather View 32 v70,2013-06-10 07:40:00,
2013-06-10 03:49:00,53.0,53.0,30.20,WNW,292,1.0,3.0,100,0.00,,,0.00,Weather View 32 v70,2013-06-10 07:49:00,
2013-06-10 03:54:00,53.0,53.0,30.20,WNW,292,1.0,3.0,100,0.00,,,0.00,Weather View 32 v70,2013-06-10 07:54:00,
2013-06-10 04:04:00,53.0,53.0,30.20,WNW,292,0.0,2.0,100,0.00,,,0.00,Weather View 32 v70,2013-06-10 08:04:00,
2013-06-10 04:10:00,53.0,53.0,30.20,WSW,248,0.0,2.0,100,0.00,,,0.00,Weather View 32 v70,2013-06-10 08:10:00,
2013-06-10 04:19:00,53.0,53.0,30.21,SW,225,0.0,2.0,100,0.00,,,0.00,Weather View 32 v70,2013-06-10 08:19:00,
2013-06-10 04:29:00,53.0,53.0,30.21,WSW,248,1.0,2.0,100,0.00,,,0.00,Weather View 32 v70,2013-06-10 08:29:00,
2013-06-10 04:34:00,53.0,53.0,30.21,West,270,0.0,2.0,100,0.00,,,0.00,Weather View 32 v70,2013-06-10 08:34:00,
2013-06-10 04:39:00,53.0,53.0,30.21,WNW,292,0.0,2.0,100,0.00,,,0.00,Weather View 32 v70,2013-06-10 08:39:00,
2013-06-10 04:50:00,52.0,52.0,30.21,West,270,0.0,2.0,100,0.00,,,0.00,Weather View 32 v70,2013-06-10 08:50:00,
2013-06-10 04:54:00,52.0,52.0,30.21,WNW,292,0.0,2.0,100,0.00,,,0.00,Weather View 32 v70,2013-06-10 08:54:00,
2013-06-10 05:04:00,52.0,52.0,30.21,SSE,158,0.0,2.0,100,0.00,,,0.00,Weather View 32 v70,2013-06-10 09:04:00,
2013-06-10 05:10:00,52.0,52.0,30.21,SSW,202,0.0,2.0,100,0.00,,,0.00,Weather View 32 v70,2013-06-10 09:10:00,
2013-06-10 05:19:00,52.0,52.0,30.21,SW,225,1.0,1.0,100,0.00,,,0.00,Weather View 32 v70,2013-06-10 09:19:00,
2013-06-10 05:24:00,52.0,52.0,30.21,West,270,0.0,1.0,100,0.00,,,0.00,Weather View 32 v70,2013-06-10 09:24:00,
2013-06-10 05:29:00,52.0,52.0,30.22,West,270,1.0,1.0,100,0.00,,,0.00,Weather View 32 v70,2013-06-10 09:29:00,
2013-06-10 05:34:00,52.0,52.0,30.22,West,270,0.0,1.0,100,0.00,,,0.00,Weather View 32 v70,2013-06-10 09:34:00,
2013-06-10 05:45:00,52.0,52.0,30.21,WNW,292,0.0,1.0,100,0.00,,,0.00,Weather View 32 v70,2013-06-10 09:45:00,
2013-06-10 05:54:00,52.0,52.0,30.22,SW,225,0.0,1.0,100,0.00,,,0.00,Weather View 32 v70,2013-06-10 09:54:00,
2013-06-10 06:04:00,52.0,52.0,30.22,SW,225,1.0,1.0,100,0.00,,,0.00,Weather View 32 v70,2013-06-10 10:04:00,
2013-06-10 06:15:00,53.0,53.0,30.22,WNW,292,0.0,2.0,100,0.00,,,0.00,Weather View 32 v70,2013-06-10 10:15:00,
2013-06-10 06:24:00,53.0,53.0,30.22,West,270,0.0,2.0,100,0.00,,,0.00,Weather View 32 v70,2013-06-10 10:24:00,
2013-06-10 06:34:00,53.0,53.0,30.22,West,270,0.0,2.0,100,0.00,,,0.00,Weather View 32 v70,2013-06-10 10:34:00,
2013-06-10 06:44:00,53.0,53.0,30.23,West,270,0.0,2.0,100,0.00,,,0.00,Weather View 32 v70,2013-06-10 10:44:00,
2013-06-10 06:55:00,54.0,54.0,30.23,West,270,0.0,2.0,100,0.00,,,0.00,Weather View 32 v70,2013-06-10 10:55:00,
2013-06-10 06:59:00,54.0,54.0,30.23,WSW,248,0.0,2.0,100,0.00,,,0.00,Weather View 32 v70,2013-06-10 10:59:00,
2013-06-10 07:09:00,54.0,54.0,30.22,SSW,202,1.0,1.0,100,0.00,,,0.00,Weather View 32 v70,2013-06-10 11:09:00,
2013-06-10 07:14:00,55.0,55.0,30.22,SSW,202,1.0,2.0,100,0.00,,,0.00,Weather View 32 v70,2013-06-10 11:14:00,
2013-06-10 07:24:00,55.0,55.0,30.22,WNW,292,1.0,3.0,100,0.00,,,0.00,Weather View 32 v70,2013-06-10 11:24:00,
2013-06-10 07:34:00,56.0,56.0,30.22,South,180,0.0,3.0,100,0.00,,,0.00,Weather View 32 v70,2013-06-10 11:34:00,
2013-06-10 07:44:00,58.0,58.0,30.22,South,180,0.0,3.0,100,0.00,,,0.00,Weather View 32 v70,2013-06-10 11:44:00,
2013-06-10 07:49:00,59.0,59.0,30.23,South,180,1.0,3.0,100,0.00,,,0.00,Weather View 32 v70,2013-06-10 11:49:00,
2013-06-10 07:59:00,61.0,61.0,30.23,SSE,158,1.0,3.0,100,0.00,,,0.00,Weather View 32 v70,2013-06-10 11:59:00,
2013-06-10 08:04:00,62.0,61.4,30.23,SSW,202,1.0,3.0,98,0.00,,,0.00,Weather View 32 v70,2013-06-10 12:04:00,
2013-06-10 08:14:00,62.0,59.3,30.23,WSW,248,0.0,3.0,91,0.00,,,0.00,Weather View 32 v70,2013-06-10 12:14:00,
2013-06-10 08:19:00,62.0,58.7,30.23,SSW,202,0.0,2.0,89,0.00,,,0.00,Weather View 32 v70,2013-06-10 12:19:00,
2013-06-10 08:24:00,63.0,59.1,30.23,WSW,248,0.0,2.0,87,0.00,,,0.00,Weather View 32 v70,2013-06-10 12:24:00,
2013-06-10 08:29:00,63.0,58.1,30.23,WSW,248,0.0,2.0,84,0.00,,,0.00,Weather View 32 v70,2013-06-10 12:29:00,
2013-06-10 08:39:00,64.0,58.0,30.22,South,180,1.0,2.0,81,0.00,,,0.00,Weather View 32 v70,2013-06-10 12:39:00,
2013-06-10 08:44:00,64.0,57.3,30.22,SW,225,1.0,2.0,79,0.00,,,0.00,Weather View 32 v70,2013-06-10 12:44:00,
2013-06-10 08:49:00,64.0,57.0,30.22,SE,135,1.0,2.0,78,0.00,,,0.00,Weather View 32 v70,2013-06-10 12:49:00,
2013-06-10 08:59:00,65.0,57.6,30.23,SSE,158,0.0,2.0,77,0.00,,,0.00,Weather View 32 v70,2013-06-10 12:59:00,
2013-06-10 09:05:00,65.0,57.6,30.23,SSE,158,0.0,2.0,77,0.00,,,0.00,Weather View 32 v70,2013-06-10 13:05:00,
2013-06-10 09:14:00,64.0,56.6,30.22,SSE,158,1.0,2.0,77,0.00,,,0.00,Weather View 32 v70,2013-06-10 13:14:00,
2013-06-10 09:24:00,64.0,57.3,30.22,SSE,158,0.0,2.0,79,0.00,,,0.00,Weather View 32 v70,2013-06-10 13:24:00,
2013-06-10 09:29:00,64.0,57.7,30.22,South,180,0.0,2.0,80,0.00,,,0.00,Weather View 32 v70,2013-06-10 13:29:00,
2013-06-10 09:34:00,64.0,57.7,30.22,SSW,202,1.0,2.0,80,0.00,,,0.00,Weather View 32 v70,2013-06-10 13:34:00,
2013-06-10 09:44:00,64.0,57.0,30.22,South,180,5.0,6.0,78,0.00,,,0.00,Weather View 32 v70,2013-06-10 13:44:00,
2013-06-10 09:49:00,64.0,57.0,30.22,SE,135,3.0,7.0,78,0.00,,,0.00,Weather View 32 v70,2013-06-10 13:49:00,
2013-06-10 09:59:00,65.0,58.0,30.22,South,180,1.0,7.0,78,0.00,,,0.00,Weather View 32 v70,2013-06-10 13:59:00,
2013-06-10 10:04:00,65.0,58.0,30.22,West,270,1.0,7.0,78,0.00,,,0.00,Weather View 32 v70,2013-06-10 14:04:00,
2013-06-10 10:09:00,65.0,58.3,30.22,West,270,1.0,7.0,79,0.00,,,0.00,Weather View 32 v70,2013-06-10 14:09:00,
2013-06-10 10:14:00,66.0,58.9,30.22,WNW,292,0.0,7.0,78,0.00,,,0.00,Weather View 32 v70,2013-06-10 14:14:00,
2013-06-10 10:24:00,66.0,58.9,30.22,SE,135,1.0,7.0,78,0.00,,,0.00,Weather View 32 v70,2013-06-10 14:24:00,
2013-06-10 10:35:00,66.0,58.2,30.22,WSW,248,1.0,7.0,76,0.00,,,0.00,Weather View 32 v70,2013-06-10 14:35:00,
2013-06-10 10:39:00,66.0,58.2,30.22,SSW,202,1.0,7.0,76,0.00,,,0.00,Weather View 32 v70,2013-06-10 14:39:00,
2013-06-10 10:48:00,67.0,59.5,30.22,SSE,158,1.0,7.0,77,0.00,,,0.00,Weather View 32 v70,2013-06-10 14:48:00,
2013-06-10 10:54:00,67.0,58.8,30.22,SW,225,1.0,4.0,75,0.00,,,0.00,Weather View 32 v70,2013-06-10 14:54:00,
2013-06-10 11:04:00,67.0,58.8,30.22,SSW,202,1.0,4.0,75,0.00,,,0.00,Weather View 32 v70,2013-06-10 15:04:00,
2013-06-10 11:09:00,67.0,58.8,30.22,SSE,158,1.0,4.0,75,0.00,,,0.00,Weather View 32 v70,2013-06-10 15:09:00,
2013-06-10 11:19:00,68.0,59.4,30.22,SE,135,1.0,5.0,74,0.00,,,0.00,Weather View 32 v70,2013-06-10 15:19:00,
2013-06-10 11:29:00,68.0,59.4,30.22,West,270,1.0,5.0,74,0.00,,,0.00,Weather View 32 v70,2013-06-10 15:29:00,
2013-06-10 11:34:00,68.0,59.4,30.22,South,180,2.0,5.0,74,0.00,,,0.00,Weather View 32 v70,2013-06-10 15:34:00,
2013-06-10 11:39:00,68.0,59.0,30.22,SW,225,1.0,5.0,73,0.00,,,0.00,Weather View 32 v70,2013-06-10 15:39:00,
2013-06-10 11:44:00,69.0,60.3,30.22,SE,135,1.0,5.0,74,0.00,,,0.00,Weather View 32 v70,2013-06-10 15:44:00,
2013-06-10 11:54:00,69.0,60.3,30.22,South,180,0.0,5.0,74,0.00,,,0.00,Weather View 32 v70,2013-06-10 15:54:00,
2013-06-10 11:59:00,69.0,60.3,30.22,SE,135,1.0,5.0,74,0.00,,,0.00,Weather View 32 v70,2013-06-10 15:59:00,
2013-06-10 12:09:00,69.0,60.3,30.21,SSE,158,1.0,5.0,74,0.00,,,0.00,Weather View 32 v70,2013-06-10 16:09:00,
2013-06-10 12:19:00,69.0,60.7,30.21,SE,135,1.0,3.0,75,0.00,,,0.00,Weather View 32 v70,2013-06-10 16:19:00,
2013-06-10 12:29:00,69.0,60.3,30.21,SE,135,2.0,3.0,74,0.00,,,0.00,Weather View 32 v70,2013-06-10 16:29:00,
2013-06-10 12:39:00,69.0,60.0,30.21,West,270,1.0,3.0,73,0.00,,,0.00,Weather View 32 v70,2013-06-10 16:39:00,
2013-06-10 12:44:00,69.0,59.6,30.21,SSW,202,1.0,3.0,72,0.00,,,0.00,Weather View 32 v70,2013-06-10 16:44:00,
2013-06-10 12:49:00,69.0,59.6,30.21,WNW,292,0.0,3.0,72,0.00,,,0.00,Weather View 32 v70,2013-06-10 16:49:00,
2013-06-10 12:59:00,69.0,60.0,30.21,SW,225,1.0,3.0,73,0.00,,,0.00,Weather View 32 v70,2013-06-10 16:59:00,
2013-06-10 13:04:00,69.0,59.6,30.21,SE,135,1.0,3.0,72,0.00,,,0.00,Weather View 32 v70,2013-06-10 17:04:00,
2013-06-10 13:14:00,70.0,61.3,30.20,WNW,292,1.0,3.0,74,0.00,,,0.00,Weather View 32 v70,2013-06-10 17:14:00,
2013-06-10 13:25:00,70.0,60.9,30.20,South,180,1.0,3.0,73,0.00,,,0.00,Weather View 32 v70,2013-06-10 17:25:00,
2013-06-10 13:34:00,69.0,60.0,30.20,SSE,158,1.0,5.0,73,0.00,,,0.00,Weather View 32 v70,2013-06-10 17:34:00,
2013-06-10 13:44:00,70.0,61.3,30.20,South,180,0.0,5.0,74,0.00,,,0.00,Weather View 32 v70,2013-06-10 17:44:00,
2013-06-10 13:49:00,70.0,61.3,30.20,SSW,202,1.0,5.0,74,0.00,,,0.00,Weather View 32 v70,2013-06-10 17:49:00,
2013-06-10 13:54:00,69.0,59.2,30.20,South,180,1.0,6.0,71,0.00,,,0.00,Weather View 32 v70,2013-06-10 17:54:00,
2013-06-10 14:04:00,70.0,60.9,30.20,SSW,202,1.0,6.0,73,0.00,,,0.00,Weather View 32 v70,2013-06-10 18:04:00,
2013-06-10 14:09:00,70.0,60.9,30.19,South,180,1.0,6.0,73,0.00,,,0.00,Weather View 32 v70,2013-06-10 18:09:00,
2013-06-10 14:19:00,69.0,60.7,30.19,South,180,0.0,6.0,75,0.00,,,0.00,Weather View 32 v70,2013-06-10 18:19:00,
2013-06-10 14:24:00,69.0,60.3,30.18,SE,135,1.0,6.0,74,0.00,,,0.00,Weather View 32 v70,2013-06-10 18:24:00,
2013-06-10 14:34:00,69.0,60.3,30.19,SE,135,1.0,6.0,74,0.00,,,0.00,Weather View 32 v70,2013-06-10 18:34:00,
2013-06-10 14:40:00,69.0,60.3,30.19,SW,225,1.0,6.0,74,0.00,,,0.00,Weather View 32 v70,2013-06-10 18:40:00,
2013-06-10 14:49:00,70.0,61.3,30.18,SSE,158,1.0,6.0,74,0.00,,,0.00,Weather View 32 v70,2013-06-10 18:49:00,
2013-06-10 14:54:00,69.0,59.6,30.18,South,180,3.0,5.0,72,0.00,,,0.00,Weather View 32 v70,2013-06-10 18:54:00,
2013-06-10 15:04:00,69.0,60.0,30.18,South,180,3.0,5.0,73,0.00,,,0.00,Weather View 32 v70,2013-06-10 19:04:00,
2013-06-10 15:14:00,69.0,59.6,30.18,SSE,158,1.0,5.0,72,0.00,,,0.00,Weather View 32 v70,2013-06-10 19:14:00,
2013-06-10 15:24:00,68.0,59.0,30.18,South,180,3.0,5.0,73,0.00,,,0.00,Weather View 32 v70,2013-06-10 19:24:00,
2013-06-10 15:29:00,68.0,59.4,30.17,SSE,158,4.0,5.0,74,0.00,,,0.00,Weather View 32 v70,2013-06-10 19:29:00,
2013-06-10 15:39:00,68.0,60.5,30.17,South,180,0.0,5.0,77,0.00,,,0.00,Weather View 32 v70,2013-06-10 19:39:00,
2013-06-10 15:49:00,67.0,59.5,30.17,South,180,2.0,6.0,77,0.00,,,0.00,Weather View 32 v70,2013-06-10 19:49:00,
2013-06-10 15:54:00,67.0,59.5,30.17,SW,225,1.0,6.0,77,0.00,,,0.00,Weather View 32 v70,2013-06-10 19:54:00,
2013-06-10 16:04:00,67.0,59.5,30.17,South,180,3.0,6.0,77,0.00,,,0.00,Weather View 32 v70,2013-06-10 20:04:00,
2013-06-10 16:14:00,66.0,58.9,30.17,SSW,202,2.0,6.0,78,0.00,,,0.00,Weather View 32 v70,2013-06-10 20:14:00,
2013-06-10 16:19:00,66.0,58.9,30.17,SE,135,1.0,6.0,78,0.00,,,0.00,Weather View 32 v70,2013-06-10 20:19:00,
2013-06-10 16:29:00,66.0,59.6,30.17,South,180,1.0,6.0,80,0.00,,,0.00,Weather View 32 v70,2013-06-10 20:29:00,
2013-06-10 16:34:00,66.0,60.0,30.17,SSW,202,1.0,6.0,81,0.00,,,0.00,Weather View 32 v70,2013-06-10 20:34:00,
2013-06-10 16:44:00,65.0,58.3,30.17,SE,135,2.0,7.0,79,0.00,,,0.00,Weather View 32 v70,2013-06-10 20:44:00,
2013-06-10 16:51:00,65.0,58.7,30.16,West,270,1.0,7.0,80,0.00,,,0.00,Weather View 32 v70,2013-06-10 20:51:00,
2013-06-10 16:59:00,65.0,58.7,30.16,WSW,248,2.0,7.0,80,0.00,,,0.00,Weather View 32 v70,2013-06-10 20:59:00,
2013-06-10 17:09:00,65.0,59.4,30.16,SE,135,1.0,7.0,82,0.00,,,0.00,Weather View 32 v70,2013-06-10 21:09:00,
2013-06-10 17:14:00,64.0,58.4,30.15,SSE,158,1.0,7.0,82,0.00,,,0.00,Weather View 32 v70,2013-06-10 21:14:00,
2013-06-10 17:24:00,64.0,58.7,30.15,WSW,248,2.0,7.0,83,0.00,,,0.00,Weather View 32 v70,2013-06-10 21:24:00,
2013-06-10 17:34:00,64.0,59.1,30.14,South,180,3.0,7.0,84,0.00,,,0.00,Weather View 32 v70,2013-06-10 21:34:00,
2013-06-10 17:39:00,64.0,59.4,30.14,South,180,4.0,7.0,85,0.00,,,0.00,Weather View 32 v70,2013-06-10 21:39:00,
2013-06-10 17:44:00,63.0,58.4,30.14,South,180,5.0,7.0,85,0.00,,,0.00,Weather View 32 v70,2013-06-10 21:44:00,
2013-06-10 17:52:00,63.0,58.4,30.14,South,180,5.0,7.0,85,0.00,,,0.00,Weather View 32 v70,2013-06-10 21:52:00,
2013-06-10 17:59:00,63.0,58.7,30.13,WSW,248,4.0,7.0,86,0.00,,,0.00,Weather View 32 v70,2013-06-10 21:59:00,
2013-06-10 18:09:00,62.0,57.8,30.13,South,180,4.0,7.0,86,0.00,,,0.00,Weather View 32 v70,2013-06-10 22:09:00,
2013-06-10 18:19:00,62.0,58.4,30.13,SSE,158,5.0,8.0,88,0.00,,,0.00,Weather View 32 v70,2013-06-10 22:19:00,
2013-06-10 18:29:00,61.0,58.0,30.13,West,270,2.0,9.0,90,0.00,,,0.00,Weather View 32 v70,2013-06-10 22:29:00,
2013-06-10 18:34:00,61.0,58.3,30.13,SE,135,2.0,9.0,91,0.00,,,0.00,Weather View 32 v70,2013-06-10 22:34:00,
2013-06-10 18:39:00,61.0,58.7,30.13,SE,135,2.0,9.0,92,0.00,,,0.00,Weather View 32 v70,2013-06-10 22:39:00,
2013-06-10 18:44:00,61.0,58.7,30.13,South,180,3.0,9.0,92,0.00,,,0.00,Weather View 32 v70,2013-06-10 22:44:00,
2013-06-10 18:52:00,61.0,59.0,30.13,South,180,2.0,9.0,93,0.00,,,0.00,Weather View 32 v70,2013-06-10 22:52:00,
2013-06-10 18:59:00,61.0,59.3,30.13,SE,135,1.0,9.0,94,0.00,,,0.00,Weather View 32 v70,2013-06-10 22:59:00,
2013-06-10 19:09:00,60.0,58.9,30.13,SSE,158,2.0,9.0,96,0.00,,,0.00,Weather View 32 v70,2013-06-10 23:09:00,
2013-06-10 19:19:00,60.0,59.1,30.13,South,180,2.0,9.0,97,0.01,,,0.01,Weather View 32 v70,2013-06-10 23:19:00,
2013-06-10 19:29:00,60.0,59.4,30.12,SSE,158,1.0,7.0,98,0.01,,,0.01,Weather View 32 v70,2013-06-10 23:29:00,
2013-06-10 19:39:00,59.0,58.7,30.13,South,180,1.0,6.0,99,0.01,,,0.01,Weather View 32 v70,2013-06-10 23:39:00,
2013-06-10 19:44:00,59.0,58.7,30.12,SE,135,1.0,5.0,99,0.01,,,0.01,Weather View 32 v70,2013-06-10 23:44:00,
2013-06-10 19:49:00,59.0,59.0,30.12,South,180,2.0,5.0,100,0.01,,,0.01,Weather View 32 v70,2013-06-10 23:49:00,
2013-06-10 19:59:00,59.0,59.0,30.12,WNW,292,2.0,5.0,100,0.02,,,0.02,Weather View 32 v70,2013-06-10 23:59:00,
2013-06-10 20:04:00,59.0,59.0,30.12,SSW,202,1.0,5.0,100,0.02,,,0.02,Weather View 32 v70,2013-06-11 00:04:00,
2013-06-10 20:09:00,59.0,59.0,30.11,South,180,4.0,5.0,100,0.02,,,0.02,Weather View 32 v70,2013-06-11 00:09:00,
2013-06-10 20:19:00,58.0,58.0,30.11,SSW,202,3.0,5.0,100,0.01,,,0.02,Weather View 32 v70,2013-06-11 00:19:00,
2013-06-10 20:24:00,58.0,58.0,30.11,WSW,248,1.0,5.0,100,0.01,,,0.02,Weather View 32 v70,2013-06-11 00:24:00,
2013-06-10 20:29:00,58.0,58.0,30.11,SSE,158,1.0,5.0,100,0.01,,,0.02,Weather View 32 v70,2013-06-11 00:29:00,
2013-06-10 20:35:00,58.0,58.0,30.11,West,270,1.0,5.0,100,0.01,,,0.02,Weather View 32 v70,2013-06-11 00:35:00,
2013-06-10 20:44:00,58.0,58.0,30.11,WNW,292,0.0,5.0,100,0.01,,,0.02,Weather View 32 v70,2013-06-11 00:44:00,
2013-06-10 20:54:00,58.0,58.0,30.11,SSW,202,0.0,5.0,100,0.02,,,0.03,Weather View 32 v70,2013-06-11 00:54:00,
2013-06-10 20:59:00,58.0,58.0,30.11,WSW,248,0.0,5.0,100,0.01,,,0.03,Weather View 32 v70,2013-06-11 00:59:00,
2013-06-10 21:09:00,58.0,58.0,30.11,SW,225,0.0,5.0,100,0.01,,,0.03,Weather View 32 v70,2013-06-11 01:09:00,
2013-06-10 21:19:00,58.0,58.0,30.11,SSW,202,0.0,5.0,100,0.02,,,0.04,Weather View 32 v70,2013-06-11 01:19:00,
2013-06-10 21:24:00,58.0,58.0,30.11,SE,135,0.0,4.0,100,0.02,,,0.04,Weather View 32 v70,2013-06-11 01:24:00,
2013-06-10 21:34:00,58.0,58.0,30.11,West,270,1.0,1.0,100,0.03,,,0.05,Weather View 32 v70,2013-06-11 01:34:00,
2013-06-10 21:39:00,58.0,58.0,30.11,South,180,0.0,1.0,100,0.03,,,0.05,Weather View 32 v70,2013-06-11 01:39:00,
2013-06-10 21:49:00,57.0,57.0,30.11,SSE,158,0.0,1.0,100,0.03,,,0.06,Weather View 32 v70,2013-06-11 01:49:00,
2013-06-10 21:54:00,57.0,57.0,30.11,SSE,158,0.0,1.0,100,0.03,,,0.06,Weather View 32 v70,2013-06-11 01:54:00,
2013-06-10 22:04:00,57.0,57.0,30.10,SSW,202,0.0,1.0,100,0.04,,,0.07,Weather View 32 v70,2013-06-11 02:04:00,
2013-06-10 22:14:00,57.0,57.0,30.10,South,180,0.0,1.0,100,0.03,,,0.07,Weather View 32 v70,2013-06-11 02:14:00,
2013-06-10 22:24:00,57.0,57.0,30.09,South,180,0.0,1.0,100,0.03,,,0.07,Weather View 32 v70,2013-06-11 02:24:00,
2013-06-10 22:34:00,57.0,57.0,30.09,SE,135,1.0,3.0,100,0.03,,,0.08,Weather View 32 v70,2013-06-11 02:34:00,
2013-06-10 22:39:00,57.0,57.0,30.09,South,180,3.0,4.0,100,0.03,,,0.08,Weather View 32 v70,2013-06-11 02:39:00,
2013-06-10 22:49:00,57.0,57.0,30.08,SE,135,1.0,4.0,100,0.02,,,0.08,Weather View 32 v70,2013-06-11 02:49:00,
2013-06-10 22:55:00,57.0,57.0,30.08,South,180,1.0,4.0,100,0.03,,,0.09,Weather View 32 v70,2013-06-11 02:55:00,
2013-06-10 23:04:00,57.0,57.0,30.08,South,180,1.0,4.0,100,0.03,,,0.10,Weather View 32 v70,2013-06-11 03:04:00,
2013-06-10 23:09:00,57.0,57.0,30.08,South,180,1.0,4.0,100,0.03,,,0.10,Weather View 32 v70,2013-06-11 03:09:00,
2013-06-10 23:19:00,56.0,56.0,30.08,SSE,158,2.0,4.0,100,0.04,,,0.11,Weather View 32 v70,2013-06-11 03:19:00,
2013-06-10 23:24:00,56.0,56.0,30.08,SSE,158,1.0,4.0,100,0.05,,,0.12,Weather View 32 v70,2013-06-11 03:24:00,
2013-06-10 23:34:00,56.0,56.0,30.07,South,180,3.0,5.0,100,0.04,,,0.12,Weather View 32 v70,2013-06-11 03:34:00,
2013-06-10 23:41:00,56.0,56.0,30.07,South,180,3.0,5.0,100,0.04,,,0.12,Weather View 32 v70,2013-06-11 03:41:00,
2013-06-10 23:49:00,56.0,56.0,30.07,SSW,202,0.0,5.0,100,0.06,,,0.14,Weather View 32 v70,2013-06-11 03:49:00,
2013-06-10 23:59:00,56.0,56.0,30.07,SSW,202,0.0,5.0,100,0.05,,,0.00,Weather View 32 v70,2013-06-11 03:59:00,